Weather in Porechye

Russia / Primorsky Krai     44°05′35″N   131°35′02″E
temp.,
°C
wind,
m/s
gust,
m/s
humid.,
%
clouds,
%
prec.,
mm/h
press.,
hPa
HPBL,
m
14 june, mon
mon1401:00+17n118898 0.0 100811
04:00+17w1189100 0.0 100711
07:00+18wnw1189100 0.0 100844
10:00+20sse1284100 0.0 1008226
13:00+25e446745 0.0 1007752
16:00+25se56625 0.1 1006659
19:00+19se577780 0.0 1006314
22:00+16se368492 0.0 1007215
15 june, tue
tue1501:00+13sse489689 0.0 1008262
04:00+13sse4892100 0.0 1008289
07:00+13sse598398 0.0 1009485
10:00+17s687260 0.0 1009772
13:00+20s786471 0.0 10081012
16:00+21s786276 0.0 1007895
19:00+18sse587299 0.0 1007544
22:00+13sse4887100 0.0 1009256
16 june, wed
wed1601:00+11sse2496100 0.0 1010100
04:00+11se2397100 0.0 101059
07:00+12se2393100 0.0 1010133
10:00+18sse447071 0.0 1009797
13:00+23se455390 0.0 10081112
16:00+23se775568 0.0 1007562
19:00+20se711670 0.0 1006371
22:00+14se47813 0.0 1008151
17 june, thu
thu1701:00+11sse229261 0.0 100856
04:00+10sse2294100 0.0 100736
07:00+12sse2590100 0.0 1007218
10:00+17sse6869100 0.0 1006718
13:00+20sse7961100 0.0 1004949
16:00+21sse7105782 0.0 10031052
19:00+18sse71169100 0.0 1002692
22:00+15sse61279100 0.0 1002628
18 june, fri
fri1801:00+15s41079100 0.0 10021011
04:00+14sse51095100 0.1 1001702
07:00+14sse41094100 0.6 1001602
10:00+15sse51095100 1.5 1001721
13:00+15s41195100 1.8 1001651
16:00+16sse3891100 2.7 999571
19:00+17sse61086100 0.1 998710
22:00+15sse4994100 0.4 1000553